[[{"header":{"parameterUnit":"m.s-1","parameterCategory":2,"la1":30.2991,"la2":30.254,"lo1":-89.0895,"lo2":-89.0444,"dy":0.0017,"dx":0.0017,"nx":28,"ny":28,"refTime":"2024-08-16T03:00:00:Z","depth":"0","parameterNumber":2,"parameterNumberName":"U-component_of_CURRENTS"},"data":[0,0,0,0,0,0,0,0,0,0,0,0,0,0,0,0,0,0,0,0,0,0,0,0,0,0,0,0,0,0,0,0,0,0,0,0,0,0,0,0,0,0,0,0,0,0,0,0,0,0,0,0,0,0,0,0,0,0,0.2507,0.2508,0,0.2562,0.2563,0.2564,0.2554,0.2552,0.2551,0.255,0.2621,0.2624,0.2627,0,0,0,0,0,0,0,0,0,0,0,0,0,0.2551,0.255,0.2507,0.2508,0.2508,0.2562,0.2563,0.2564,0.2554,0.2552,0.2551,0.2549,0.262,0.2624,0.2627,0,0,0,0,0,0,0,0,0,0,0,0,0,0.2564,0.2549,0.2507,0.2507,0.2507,0.2562,0.2563,0.2564,0.2554,0.2552,0.255,0.2548,0.2619,0.2623,0.2628,0.2695,0,0,0.2642,0.2644,0,0,0,0,0,0,0,0,0.2563,0.2563,0.2507,0.2507,0.2507,0.2546,0.2604,0.2608,0.2555,0.254,0.255,0.2548,0.2597,0.2603,0.2622,0.2698,0.2701,0.2642,0.2645,0.2647,0.2648,0,0,0,0,0,0,0,0.2562,0.2561,0.2532,0.2507,0.2508,0.2558,0.2556,0.2606,0.2581,0.2541,0.254,0.2541,0.2597,0.2618,0.2624,0.2702,0.2642,0.2646,0.2649,0.2651,0.2813,0.2815,0,0,0,0,0,0,0.2542,0.256,0.2531,0.2534,0.2527,0.2557,0.2556,0.2538,0.258,0.2584,0.2543,0.254,0.2611,0.2618,0.2626,0.2709,0.2647,0.2651,0.2654,0.2812,0.2814,0.2815,0,0,0,0,0,0,0.2543,0.2538,0.2528,0.2547,0.2548,0.2557,0.2538,0.254,0.2558,0.2581,0.2585,0.2556,0.2609,0.262,0.2676,0.2711,0.2654,0.2658,0.281,0.2813,0.2815,0.2874,0,0,0,0,0,0,0.2544,0.2538,0.2535,0.2544,0.2546,0.2574,0.254,0.2543,0.256,0.2558,0.2595,0.2599,0.2609,0.267,0.2681,0.2717,0.2661,0.2808,0.2811,0.2814,0.287,0.2878,0.2885,0,0,0,0,0,0.2545,0.2553,0.2534,0.2531,0.2535,0.2576,0.2584,0.2586,0.2562,0.2591,0.2606,0.2598,0.2695,0.2676,0.2688,0.2726,0.2807,0.281,0.2814,0.2867,0.2877,0.2885,0,0,0,0,0,0,0.2581,0.2553,0.2532,0.2531,0.2554,0.2573,0.2603,0.2594,0.2629,0.2627,0.2631,0.264,0.2706,0.2708,0.2685,0.2779,0.2745,0.2751,0.2781,0.2791,0.2798,0.2837,0.2665,0,0,0,0,0,0.2582,0.2576,0.2568,0.2576,0.2583,0.2592,0.261,0.2612,0.2636,0.2648,0.2667,0.2691,0.2735,0.2752,0.2796,0.2853,0.29,0.288,0.2887,0.2894,0.2934,0.3044,0.3067,0.2827,0.2827,0.2827,0,0,0.2602,0.2586,0.2584,0.2584,0.26,0.2633,0.26,0.2638,0.2671,0.2654,0.2714,0.2733,0.2759,0.2824,0.2851,0.2825,0.2981,0.2898,0.2903,0.2941,0.3051,0.3074,0.3096,0.2829,0.2829,0.2828,0,0,0.2653,0.2622,0.2638,0.2655,0.2673,0.2681,0.2689,0.2711,0.2725,0.2781,0.2777,0.2826,0.2872,0.291,0.293,0.3009,0.3027,0.2997,0.3061,0.3167,0.3188,0.3208,0.3277,0.3302,0.2987,0.2988,0.2988,0,0.2684,0.2677,0.2661,0.2689,0.2705,0.2699,0.2737,0.2767,0.2807,0.2837,0.2806,0.291,0.2926,0.3019,0.3036,0.3032,0.3078,0.3022,0.318,0.32,0.322,0.3286,0.3313,0.2991,0.2991,0.299,0.299,0,0.2737,0.2743,0.2765,0.2778,0.2807,0.2842,0.2862,0.2905,0.2906,0.2929,0.3017,0.3046,0.3106,0.3106,0.3096,0.3227,0.321,0.3187,0.3161,0.3248,0.3311,0.3338,0.2996,0.2994,0.2993,0.2993,0,0,0.2769,0.2793,0.2798,0.2818,0.2847,0.2881,0.2947,0.3005,0.3065,0.3096,0.318,0.324,0.3249,0.3274,0.3269,0.3347,0.3502,0.3321,0.3324,0.3397,0.3722,0.3517,0.3527,0.3504,0.351,0.3514,0.3704,0,0.2812,0.2863,0.2867,0.2938,0.2963,0.2987,0.3052,0.3112,0.3157,0.3245,0.3282,0.3364,0.3311,0.3347,0.3422,0.3497,0.3581,0.3452,0.3622,0.3627,0.3442,0.3555,0.3284,0.3414,0.3731,0.3735,0.3739,0,0.2841,0.2871,0.2928,0.2999,0.3016,0.3068,0.3168,0.323,0.3344,0.3383,0.3464,0.3496,0.3619,0.3556,0.3746,0.3663,0.3714,0.3754,0.3762,0.3579,0.3475,0.3383,0.3452,0.3318,0.3781,0.3777,0.3774,0,0.2834,0.2911,0.2952,0.2972,0.3057,0.3109,0.3166,0.3273,0.3347,0.3486,0.3558,0.3679,0.3762,0.3859,0.3914,0.3859,0.4114,0.4045,0.3913,0.3898,0.3708,0.3665,0.3677,0.4213,0.4213,0.4212,0.4212,0,0.2843,0.2883,0.2958,0.2979,0.3077,0.3126,0.3248,0.3323,0.3449,0.3561,0.363,0.3739,0.385,0.3974,0.4006,0.4039,0.4194,0.3969,0.3953,0.3712,0.3669,0.3571,0.356,0.4219,0.4218,0.4216,0.4215,0,0.282,0.2854,0.2922,0.3023,0.3067,0.3138,0.3287,0.339,0.3488,0.3643,0.3694,0.3845,0.3976,0.4055,0.4227,0.4143,0.4059,0.418,0.386,0.3799,0.3447,0.3448,0.3393,0.331,0.4054,0.4051,0.4048,0,0.2807,0.2833,0.295,0.3022,0.3073,0.3189,0.3289,0.3401,0.3507,0.3696,0.3779,0.3935,0.4005,0.4132,0.4042,0.4048,0.3977,0.379,0.3618,0.3422,0.3418,0.3312,0.3241,0.3405,0.3397,0.339,0.3385,0,0.2815,0.2853,0.293,0.3064,0.3174,0.3278,0.3413,0.348,0.3622,0.3713,0.3838,0.3896,0.3939,0.3782,0.3738,0.3699,0.3531,0.3645,0.3565,0.3018,0.2793,0.2702,0.3277,0.3326,0.3332,0.3336,0.3339,0.3342,0.2846,0.2914,0.3029,0.3151,0.3258,0.3345,0.3371,0.3491,0.358,0.3615,0.3765,0.3678,0.3527,0.3372,0.3336,0.2991,0.3118,0.2811,0.287,0.2811,0.2592,0.2997,0.2929,0.2932,0.2935,0.2938,0.2941,0,0.2907,0.2994,0.3123,0.3242,0.3307,0.3358,0.3443,0.3403,0.3412,0.3414,0.3419,0.3117,0.2883,0.2731,0.2401,0.2237,0.2157,0.2169,0.2001,0.2006,0.2466,0.2289,0.1927,0.1927,0.1927,0.1927,0.1928,0.1928,0.2964,0.3087,0.3151,0.3259,0.3307,0.3282,0.3267,0.3189,0.3113,0.2871,0.2617,0.2523,0.2357,0.2073,0.178,0.172,0.1635,0.1478,0.1627,0.1958,0.2022,0.2084,0.1911,0.1476,0.1475,0.0979,0.0975,0.0972]},{"header":{"parameterUnit":"m.s-1","parameterCategory":2,"la1":30.2991,"la2":30.254,"lo1":-89.0895,"lo2":-89.0444,"dy":0.0017,"dx":0.0017,"nx":28,"ny":28,"refTime":"2024-08-16T03:00:00:Z","depth":"0","parameterNumber":3,"parameterNumberName":"V-component_of_CURRENTS"},"data":[0,0,0,0,0,0,0,0,0,0,0,0,0,0,0,0,0,0,0,0,0,0,0,0,0,0,0,0,0,0,0,0,0,0,0,0,0,0,0,0,0,0,0,0,0,0,0,0,0,0,0,0,0,0,0,0,0,0,0.024,0.024,0,0.0239,0.0239,0.0239,0.0226,0.0226,0.0225,0.0225,0.0237,0.0238,0.0239,0,0,0,0,0,0,0,0,0,0,0,0,0,0.0247,0.0246,0.024,0.024,0.0239,0.0239,0.0239,0.0239,0.0226,0.0226,0.0225,0.0225,0.0237,0.0238,0.0239,0,0,0,0,0,0,0,0,0,0,0,0,0,0.0246,0.0246,0.024,0.0232,0.0231,0.0239,0.0239,0.0239,0.0226,0.0226,0.0225,0.0224,0.0237,0.0238,0.0239,0.0259,0,0,0.0243,0.0243,0,0,0,0,0,0,0,0,0.0246,0.0245,0.0233,0.0233,0.0232,0.0231,0.0246,0.0246,0.0226,0.0229,0.0225,0.0224,0.0236,0.0237,0.024,0.026,0.026,0.0243,0.0243,0.0244,0.0244,0,0,0,0,0,0,0,0.0246,0.0245,0.0241,0.0233,0.0232,0.0234,0.0233,0.0246,0.0238,0.0229,0.0228,0.0226,0.0236,0.0239,0.024,0.0261,0.0243,0.0244,0.0244,0.0245,0.0313,0.0314,0,0,0,0,0,0,0.0243,0.0246,0.0241,0.024,0.0236,0.0235,0.0234,0.0233,0.0237,0.0237,0.0227,0.0226,0.0238,0.0239,0.0241,0.0291,0.0244,0.0245,0.0245,0.0312,0.0313,0.0314,0,0,0,0,0,0,0.0243,0.0243,0.0241,0.0242,0.0242,0.0235,0.0234,0.0233,0.0238,0.0235,0.0235,0.0233,0.0237,0.0239,0.0263,0.029,0.0245,0.0246,0.031,0.0312,0.0313,0.0374,0,0,0,0,0,0,0.0244,0.0243,0.0244,0.0242,0.0241,0.0255,0.0235,0.0234,0.0237,0.0236,0.024,0.024,0.0237,0.0261,0.0264,0.0291,0.0247,0.0309,0.0311,0.0313,0.0371,0.0378,0.0384,0,0,0,0,0,0.0244,0.025,0.0244,0.0244,0.0242,0.0256,0.0257,0.025,0.0238,0.025,0.0253,0.024,0.0276,0.0263,0.0266,0.0294,0.0308,0.031,0.0313,0.0368,0.0376,0.0383,0,0,0,0,0,0,0.0249,0.0249,0.0243,0.0246,0.0254,0.0253,0.0261,0.0256,0.0266,0.0265,0.0258,0.0259,0.029,0.0283,0.0269,0.0319,0.0289,0.0292,0.033,0.0338,0.0344,0.038,0.0248,0,0,0,0,0,0.0252,0.0259,0.0259,0.0264,0.0268,0.0266,0.027,0.0269,0.0275,0.0278,0.0282,0.0288,0.0304,0.0313,0.0324,0.0353,0.0365,0.0372,0.0378,0.0384,0.0415,0.0453,0.0466,0.0322,0.0322,0.0322,0,0,0.0255,0.0256,0.0259,0.0266,0.027,0.0296,0.0267,0.0281,0.0307,0.0279,0.0317,0.0313,0.0316,0.035,0.0363,0.0348,0.0427,0.0387,0.0392,0.0421,0.0457,0.0471,0.0484,0.0324,0.0324,0.0324,0,0,0.0278,0.0267,0.0289,0.0301,0.0313,0.0317,0.0323,0.0331,0.0339,0.037,0.0358,0.0379,0.0393,0.0412,0.0419,0.0471,0.046,0.046,0.0526,0.0562,0.0574,0.0586,0.0605,0.0617,0.0464,0.0464,0.0464,0,0.0283,0.0309,0.0298,0.0327,0.0346,0.0331,0.0369,0.0379,0.0395,0.0418,0.039,0.0442,0.0432,0.0495,0.0504,0.0489,0.0499,0.0494,0.0572,0.0583,0.0594,0.0611,0.0624,0.0467,0.0467,0.0466,0.0466,0,0.0328,0.0352,0.0367,0.0403,0.0422,0.045,0.0463,0.0486,0.0486,0.0499,0.0553,0.0547,0.0584,0.0573,0.0553,0.0625,0.0603,0.0575,0.0555,0.0612,0.0626,0.0639,0.0472,0.0471,0.047,0.0469,0,0,0.034,0.039,0.0398,0.0435,0.0466,0.0492,0.0538,0.0586,0.0634,0.064,0.0712,0.072,0.0717,0.0727,0.0706,0.0729,0.079,0.0685,0.0685,0.071,0.0863,0.0785,0.0791,0.0771,0.0774,0.0777,0.0837,0,0.0385,0.0459,0.047,0.0549,0.0593,0.0603,0.0653,0.0692,0.0718,0.0781,0.0786,0.0838,0.0775,0.0798,0.0814,0.0809,0.0829,0.0776,0.08,0.0801,0.073,0.0805,0.0776,0.0823,0.0849,0.0851,0.0853,0,0.0435,0.0481,0.0563,0.0641,0.066,0.0701,0.0788,0.083,0.09,0.0924,0.0976,0.0979,0.1034,0.0959,0.0997,0.0966,0.0927,0.0905,0.0906,0.0831,0.0748,0.0772,0.0845,0.0772,0.0872,0.0871,0.0869,0,0.0469,0.055,0.062,0.0646,0.0725,0.0766,0.0807,0.0877,0.0936,0.1026,0.1093,0.1134,0.1189,0.1157,0.1097,0.106,0.1123,0.1065,0.0962,0.0955,0.0936,0.0923,0.0951,0.1094,0.1094,0.1094,0.1094,0,0.0521,0.0578,0.0642,0.0684,0.0773,0.0809,0.0908,0.0956,0.105,0.1168,0.1173,0.129,0.1244,0.1263,0.117,0.1115,0.1182,0.1006,0.0981,0.0952,0.0939,0.0876,0.0843,0.1096,0.1096,0.1095,0.1095,0,0.0552,0.0592,0.0676,0.0762,0.0793,0.0854,0.0958,0.1043,0.1121,0.1285,0.1328,0.1434,0.148,0.1392,0.1363,0.1231,0.1113,0.111,0.1066,0.1033,0.0841,0.0812,0.0827,0.0803,0.1029,0.1027,0.1026,0,0.0575,0.0624,0.0724,0.0775,0.0814,0.0903,0.0983,0.107,0.118,0.1395,0.1502,0.1592,0.1696,0.1596,0.138,0.1209,0.1122,0.1038,0.0956,0.0858,0.0809,0.0776,0.0754,0.0957,0.0956,0.0954,0.0953,0,0.0626,0.0656,0.0722,0.0825,0.091,0.1017,0.1141,0.1236,0.1394,0.1557,0.1795,0.1891,0.1806,0.1649,0.1363,0.1225,0.0982,0.1003,0.094,0.0799,0.0735,0.0689,0.0874,0.0942,0.0943,0.0944,0.0944,0.0945,0.0656,0.0705,0.0792,0.0885,0.099,0.1141,0.1242,0.1417,0.1624,0.19,0.1984,0.2126,0.1854,0.1484,0.1294,0.0883,0.092,0.0753,0.0741,0.0728,0.0666,0.0806,0.0806,0.0806,0.0807,0.0807,0.0807,0,0.0699,0.0758,0.0852,0.0979,0.1103,0.1155,0.1366,0.1503,0.1773,0.2009,0.2212,0.2081,0.1773,0.1409,0.0865,0.0647,0.0586,0.0549,0.0524,0.0525,0.0691,0.0643,0.0562,0.0562,0.0562,0.0562,0.0562,0.0562,0.0729,0.0817,0.0865,0.1057,0.1155,0.1343,0.1468,0.1702,0.1882,0.2134,0.2164,0.2169,0.1822,0.1046,0.0562,0.0477,0.0388,0.0331,0.0318,0.0437,0.0456,0.0473,0.0421,0.0295,0.0294,0.0155,0.0153,0.0152]}],[{"header":{"parameterUnit":"m.s-1","parameterCategory":2,"la1":30.2991,"la2":30.254,"lo1":-89.0895,"lo2":-89.0444,"dy":0.0017,"dx":0.0017,"nx":28,"ny":28,"refTime":"2024-08-16T03:00:00:Z","depth":"2","parameterNumber":2,"parameterNumberName":"U-component_of_CURRENTS"},"data":[0,0,0,0,0,0,0,0,0,0,0,0,0,0,0,0,0,0,0,0,0,0,0,0,0,0,0,0,0,0,0,0,0,0,0,0,0,0,0,0,0,0,0,0,0,0,0,0,0,0,0,0,0,0,0,0,0,0,0.2177,0.2177,0,0.2181,0.2181,0.2181,0.2177,0.2177,0.2177,0.2177,0.2207,0.2207,0.2208,0,0,0,0,0,0,0,0,0,0,0,0,0,0.2201,0.22,0.2177,0.2177,0.2177,0.2181,0.2181,0.2181,0.2177,0.2177,0.2177,0.2177,0.2206,0.2207,0.2208,0,0,0,0,0,0,0,0,0,0,0,0,0,0.2195,0.22,0.2177,0.2177,0.2177,0.2181,0.2181,0.2181,0.2177,0.2177,0.2177,0.2177,0.2206,0.2207,0.2208,0.2215,0,0,0.2212,0.2212,0,0,0,0,0,0,0,0,0.2195,0.2193,0.2177,0.2177,0.2177,0.218,0.22,0.2194,0.2177,0.2175,0.2177,0.2177,0.2201,0.2203,0.22,0.2216,0.2217,0.2212,0.2213,0.2213,0.2213,0,0,0,0,0,0,0,0.2195,0.2194,0.2176,0.2177,0.2178,0.219,0.2188,0.2199,0.2187,0.2175,0.2176,0.2179,0.2201,0.2199,0.2201,0.2218,0.2212,0.2213,0.2214,0.2214,0.2323,0.2325,0,0,0,0,0,0,0.2197,0.2194,0.2176,0.2177,0.2189,0.2189,0.2187,0.2178,0.2186,0.2188,0.2179,0.2179,0.2197,0.22,0.2202,0.2268,0.2213,0.2214,0.2215,0.2321,0.2324,0.2326,0,0,0,0,0,0,0.2197,0.2194,0.2176,0.2188,0.2187,0.2189,0.2178,0.2178,0.2186,0.2189,0.2191,0.2189,0.2197,0.2201,0.2237,0.2267,0.2215,0.2216,0.2318,0.2322,0.2325,0.2362,0,0,0,0,0,0,0.2197,0.2194,0.2195,0.2187,0.2186,0.2192,0.2178,0.2178,0.2189,0.2189,0.2198,0.22,0.2198,0.2236,0.2239,0.2268,0.2217,0.2316,0.232,0.2324,0.2358,0.2367,0.2374,0,0,0,0,0,0.2198,0.2201,0.2195,0.2193,0.2184,0.2193,0.2194,0.2195,0.2189,0.22,0.2215,0.2201,0.2265,0.2238,0.2241,0.2271,0.2314,0.2319,0.2324,0.2355,0.2365,0.2373,0,0,0,0,0,0,0.2219,0.2201,0.2194,0.2192,0.2198,0.2194,0.2206,0.2202,0.222,0.2226,0.2222,0.2226,0.2281,0.2272,0.2243,0.2319,0.229,0.2295,0.2313,0.2322,0.233,0.236,0.2218,0,0,0,0,0,0.2221,0.2217,0.2208,0.2213,0.2214,0.2211,0.2216,0.2218,0.2228,0.2235,0.2246,0.2267,0.2302,0.2307,0.234,0.2363,0.2396,0.239,0.2397,0.2403,0.2433,0.2504,0.252,0.2342,0.2342,0.2342,0,0,0.2232,0.2224,0.2222,0.2217,0.2219,0.2231,0.2214,0.2231,0.2253,0.2238,0.228,0.2304,0.2322,0.2367,0.2388,0.2357,0.2472,0.241,0.2414,0.2442,0.2511,0.2528,0.2543,0.2346,0.2345,0.2345,0,0,0.2254,0.2243,0.2245,0.2254,0.2263,0.226,0.2267,0.2273,0.2289,0.2328,0.2338,0.238,0.2411,0.2435,0.2448,0.2517,0.2526,0.2524,0.2564,0.2631,0.2647,0.266,0.2723,0.2742,0.2507,0.2507,0.2507,0,0.2268,0.2262,0.2254,0.2267,0.2278,0.2274,0.2289,0.2308,0.2333,0.2362,0.2354,0.2446,0.245,0.2515,0.2541,0.2534,0.2577,0.2519,0.2641,0.2655,0.2669,0.2729,0.275,0.2509,0.2509,0.2509,0.2508,0,0.2288,0.2292,0.2301,0.2306,0.2324,0.2338,0.2358,0.238,0.2396,0.2429,0.2513,0.2533,0.2586,0.2591,0.2585,0.2682,0.2684,0.2656,0.2612,0.2689,0.2748,0.2769,0.2513,0.2512,0.2511,0.251,0,0,0.2291,0.2305,0.2311,0.2316,0.2343,0.2353,0.2398,0.2438,0.2472,0.253,0.2596,0.2662,0.2691,0.2711,0.2711,0.2758,0.2875,0.2748,0.275,0.2803,0.3039,0.2841,0.2844,0.2869,0.2873,0.2876,0.3041,0,0.2303,0.2326,0.2334,0.2364,0.2374,0.2391,0.2435,0.2487,0.2524,0.2593,0.2659,0.2741,0.273,0.2761,0.2814,0.2877,0.2934,0.2835,0.2965,0.297,0.2778,0.2862,0.2603,0.2711,0.3061,0.3064,0.3067,0,0.2305,0.2326,0.2358,0.2382,0.2389,0.2415,0.2465,0.2509,0.2611,0.2652,0.2745,0.281,0.2929,0.2889,0.3054,0.2996,0.3036,0.3067,0.3073,0.2894,0.281,0.2694,0.2735,0.3101,0.3099,0.3096,0.3094,0,0.2293,0.2325,0.235,0.2366,0.2413,0.2432,0.2457,0.2539,0.2592,0.2712,0.278,0.2914,0.3004,0.3093,0.3163,0.3136,0.332,0.3279,0.3144,0.3132,0.294,0.2901,0.3399,0.3398,0.3398,0.3398,0.3397,0,0.2283,0.2298,0.2348,0.2364,0.2403,0.2443,0.2496,0.2531,0.2633,0.273,0.2829,0.2931,0.3066,0.3177,0.3219,0.3243,0.3373,0.3186,0.3167,0.2941,0.2903,0.3257,0.3238,0.3404,0.3402,0.3401,0.34,0,0.2259,0.229,0.2313,0.2371,0.2395,0.2426,0.2502,0.2531,0.2648,0.2772,0.2836,0.3004,0.3134,0.3214,0.3356,0.3299,0.3343,0.3309,0.3025,0.2966,0.3107,0.3089,0.3211,0.3205,0.3201,0.3197,0.3193,0,0.2236,0.2259,0.2317,0.2351,0.2375,0.2434,0.2458,0.2528,0.2586,0.2816,0.2881,0.3052,0.3122,0.322,0.3166,0.3172,0.3269,0.2908,0.2782,0.3122,0.3093,0.3081,0.307,0.2572,0.2564,0.2558,0.2552,0,0.221,0.2241,0.2257,0.2335,0.2356,0.2413,0.2475,0.2505,0.2631,0.2713,0.2864,0.2943,0.3021,0.2883,0.284,0.2813,0.2875,0.2766,0.3248,0.2612,0.2519,0.2489,0.25,0.2493,0.2499,0.2504,0.2507,0.2509,0.2179,0.2173,0.222,0.2283,0.2338,0.2407,0.2377,0.2459,0.2507,0.2579,0.2721,0.2698,0.2707,0.2487,0.2398,0.2311,0.2518,0.2393,0.2416,0.2445,0.2293,0.2191,0.208,0.2083,0.2086,0.2088,0.2091,0,0.2132,0.2143,0.2185,0.2213,0.2242,0.2354,0.2391,0.2311,0.2296,0.237,0.2397,0.214,0.2019,0.2041,0.1807,0.1755,0.1772,0.1677,0.1695,0.1753,0.1805,0.1623,0.1231,0.1229,0.1226,0.1224,0,0,0.2093,0.2082,0.2089,0.2116,0.2185,0.2188,0.219,0.2068,0.2055,0.1933,0.187,0.1942,0.1996,0.1606,0.152,0.1348,0.1554,0.1285,0.1977,0.2061,0.2111,0.2216,0.1998,0,0,0,0,0]},{"header":{"parameterUnit":"m.s-1","parameterCategory":2,"la1":30.2991,"la2":30.254,"lo1":-89.0895,"lo2":-89.0444,"dy":0.0017,"dx":0.0017,"nx":28,"ny":28,"refTime":"2024-08-16T03:00:00:Z","depth":"2","parameterNumber":3,"parameterNumberName":"V-component_of_CURRENTS"},"data":[0,0,0,0,0,0,0,0,0,0,0,0,0,0,0,0,0,0,0,0,0,0,0,0,0,0,0,0,0,0,0,0,0,0,0,0,0,0,0,0,0,0,0,0,0,0,0,0,0,0,0,0,0,0,0,0,0,0,0.0094,0.0094,0,0.0088,0.0088,0.0088,0.0077,0.0077,0.0077,0.0077,0.0077,0.0077,0.0078,0,0,0,0,0,0,0,0,0,0,0,0,0,0.0101,0.0101,0.0094,0.0094,0.0094,0.0088,0.0088,0.0088,0.0077,0.0077,0.0077,0.0077,0.0077,0.0077,0.0078,0,0,0,0,0,0,0,0,0,0,0,0,0,0.0097,0.0101,0.0094,0.0087,0.0087,0.0088,0.0088,0.0088,0.0078,0.0077,0.0077,0.0076,0.0077,0.0077,0.0078,0.0088,0,0,0.0079,0.0079,0,0,0,0,0,0,0,0,0.0097,0.0097,0.0089,0.0088,0.0087,0.0082,0.009,0.0088,0.0078,0.0082,0.0077,0.0076,0.0079,0.0079,0.008,0.0088,0.0088,0.0079,0.0079,0.0079,0.008,0,0,0,0,0,0,0,0.0098,0.0097,0.0093,0.0089,0.0088,0.0085,0.0085,0.009,0.0084,0.0082,0.0081,0.0079,0.0079,0.008,0.008,0.0088,0.0079,0.0079,0.008,0.008,0.0116,0.0117,0,0,0,0,0,0,0.0097,0.0098,0.0093,0.0092,0.009,0.0086,0.0085,0.0085,0.0084,0.0083,0.0079,0.0078,0.0079,0.008,0.008,0.011,0.0079,0.008,0.008,0.0115,0.0116,0.0117,0,0,0,0,0,0,0.0097,0.0097,0.0093,0.0094,0.0093,0.0086,0.0086,0.0085,0.0088,0.0081,0.0081,0.0083,0.0079,0.008,0.0091,0.0109,0.008,0.008,0.0115,0.0116,0.0117,0.0158,0,0,0,0,0,0,0.0097,0.0097,0.0098,0.0094,0.0093,0.01,0.0086,0.0085,0.0087,0.0086,0.0085,0.0084,0.0079,0.0091,0.0092,0.0109,0.0081,0.0114,0.0115,0.0116,0.0156,0.0161,0.0165,0,0,0,0,0,0.0098,0.0101,0.0098,0.0098,0.0095,0.01,0.01,0.0094,0.0087,0.0094,0.0094,0.0084,0.01,0.0092,0.0093,0.0111,0.0113,0.0115,0.0116,0.0154,0.016,0.0164,0,0,0,0,0,0,0.01,0.01,0.0097,0.0099,0.0102,0.0098,0.0102,0.0098,0.0103,0.0103,0.0095,0.0095,0.0112,0.0105,0.0097,0.0125,0.0105,0.0107,0.0133,0.0138,0.0143,0.0157,0.0081,0,0,0,0,0,0.0102,0.0109,0.0107,0.011,0.0112,0.0109,0.011,0.0108,0.011,0.0111,0.0112,0.0113,0.012,0.0124,0.0128,0.0144,0.0141,0.0156,0.016,0.0164,0.0176,0.0186,0.0192,0.0122,0.0122,0.0122,0,0,0.0102,0.0104,0.0106,0.0111,0.0112,0.0128,0.0109,0.0116,0.0134,0.0112,0.0135,0.013,0.0128,0.0146,0.0153,0.0143,0.018,0.0166,0.0169,0.018,0.0188,0.0195,0.0201,0.0124,0.0123,0.0123,0,0,0.0114,0.011,0.0124,0.0132,0.0139,0.0142,0.0146,0.015,0.0155,0.0174,0.0164,0.0168,0.018,0.0182,0.0184,0.0215,0.0203,0.0215,0.025,0.0259,0.0265,0.0271,0.0268,0.0273,0.0217,0.0217,0.0217,0,0.0114,0.0134,0.0128,0.0149,0.0161,0.0152,0.0176,0.0182,0.0191,0.0203,0.0189,0.0209,0.0199,0.0226,0.0234,0.0226,0.0227,0.023,0.0266,0.0271,0.0275,0.0272,0.0277,0.0219,0.0219,0.0219,0.0219,0,0.0142,0.016,0.017,0.0197,0.0208,0.0227,0.0236,0.0248,0.025,0.026,0.0284,0.0271,0.0286,0.0278,0.0266,0.0297,0.0284,0.027,0.0253,0.0285,0.0279,0.0283,0.0222,0.0222,0.0221,0.022,0,0,0.0144,0.0182,0.0189,0.0215,0.0238,0.0254,0.0281,0.031,0.0336,0.0338,0.0377,0.0372,0.0365,0.0367,0.0349,0.0349,0.037,0.0327,0.0327,0.0327,0.0388,0.033,0.0328,0.0365,0.0366,0.0367,0.0368,0,0.0172,0.0222,0.0234,0.0288,0.0317,0.0322,0.0354,0.0377,0.0389,0.0423,0.0415,0.0447,0.04,0.0413,0.0405,0.0393,0.0384,0.0371,0.0356,0.0356,0.0302,0.0333,0.0352,0.0351,0.0372,0.0373,0.0373,0,0.0203,0.0237,0.0293,0.0347,0.036,0.0388,0.0436,0.0465,0.0501,0.0514,0.0532,0.0533,0.055,0.05,0.0487,0.0484,0.0441,0.0413,0.0412,0.0349,0.0306,0.0324,0.0357,0.038,0.0379,0.0379,0.0379,0,0.0224,0.028,0.033,0.0349,0.0404,0.0429,0.0458,0.0494,0.0544,0.0582,0.0635,0.0626,0.0662,0.0608,0.0547,0.0529,0.0522,0.0489,0.0389,0.0384,0.0393,0.0387,0.0468,0.0468,0.0468,0.0468,0.0468,0,0.0259,0.0299,0.0344,0.0376,0.0439,0.0463,0.0534,0.0555,0.0622,0.0723,0.0694,0.0775,0.0696,0.0683,0.059,0.051,0.0556,0.0406,0.0386,0.0405,0.04,0.0419,0.0414,0.0468,0.0468,0.0468,0.0468,0,0.0281,0.031,0.0372,0.0432,0.0455,0.0501,0.0596,0.066,0.071,0.0842,0.0876,0.0914,0.0897,0.0781,0.0703,0.0588,0.0495,0.0443,0.046,0.0441,0.0338,0.0335,0.0347,0.0345,0.0343,0.0342,0.0341,0,0.0296,0.0332,0.041,0.0451,0.0481,0.0555,0.0626,0.0697,0.0792,0.0949,0.104,0.1054,0.1085,0.0914,0.0711,0.0518,0.0489,0.0392,0.0346,0.0349,0.0329,0.0328,0.0327,0.0379,0.0378,0.0377,0.0377,0,0.0328,0.0355,0.0407,0.0496,0.0572,0.0675,0.0786,0.089,0.1024,0.1136,0.1301,0.133,0.1168,0.0982,0.068,0.055,0.0417,0.037,0.0405,0.0389,0.0374,0.0356,0.0355,0.0371,0.0372,0.0372,0.0373,0.0373,0.0348,0.0388,0.0463,0.0551,0.0649,0.0816,0.0925,0.108,0.1264,0.1452,0.146,0.147,0.1242,0.0844,0.0623,0.0373,0.0385,0.0286,0.0291,0.0296,0.0282,0.0264,0.0237,0.0237,0.0237,0.0237,0.0237,0,0.0382,0.0436,0.0515,0.0648,0.0783,0.0825,0.1051,0.1184,0.1427,0.1525,0.1607,0.1358,0.1139,0.0868,0.0502,0.0282,0.0283,0.0205,0.0264,0.027,0.0276,0.0263,0.0212,0.0212,0.0211,0.021,0,0,0.0402,0.0487,0.0539,0.0754,0.0853,0.1054,0.1198,0.1391,0.1502,0.1601,0.1562,0.1482,0.1178,0.0894,0.0617,0.042,0.0394,0.0375,0.0419,0.0529,0.0537,0.0346,0.0335,0,0,0,0,0]}],[{"header":{"parameterUnit":"m.s-1","parameterCategory":2,"la1":30.2991,"la2":30.254,"lo1":-89.0895,"lo2":-89.0444,"dy":0.0017,"dx":0.0017,"nx":28,"ny":28,"refTime":"2024-08-16T03:00:00:Z","depth":"4","parameterNumber":2,"parameterNumberName":"U-component_of_CURRENTS"},"data":[0,0,0,0,0,0,0,0,0,0,0,0,0,0,0,0,0,0,0,0,0,0,0,0,0,0,0,0,0,0,0,0,0,0,0,0,0,0,0,0,0,0,0,0,0,0,0,0,0,0,0,0,0,0,0,0,0,0,0.1323,0.1324,0,0.1327,0.1327,0.1327,0.1349,0.135,0.1351,0.1351,0.138,0.138,0.138,0,0,0,0,0,0,0,0,0,0,0,0,0,0.131,0.131,0.1323,0.1324,0.1324,0.1327,0.1327,0.1327,0.1349,0.135,0.1351,0.1352,0.138,0.138,0.138,0,0,0,0,0,0,0,0,0,0,0,0,0,0.1312,0.131,0.1323,0.1338,0.134,0.1327,0.1327,0.1327,0.1349,0.135,0.1351,0.1352,0.138,0.138,0.138,0.1354,0,0,0.1379,0.1379,0,0,0,0,0,0,0,0,0.1311,0.1312,0.1335,0.1337,0.1339,0.1342,0.1333,0.1338,0.1348,0.1342,0.1351,0.1353,0.1371,0.1371,0.1364,0.1355,0.1356,0.1379,0.1379,0.1379,0.1379,0,0,0,0,0,0,0,0.1311,0.1311,0.1321,0.1336,0.1338,0.1336,0.1337,0.1333,0.1347,0.1342,0.1345,0.135,0.1371,0.1364,0.1365,0.1357,0.1379,0.1379,0.1379,0.1379,0.1441,0.1443,0,0,0,0,0,0,0.1317,0.1311,0.1321,0.1322,0.1332,0.1336,0.1337,0.1337,0.1346,0.135,0.1349,0.1351,0.1363,0.1365,0.1366,0.1423,0.1379,0.1379,0.1379,0.144,0.1442,0.1443,0,0,0,0,0,0,0.1317,0.1318,0.1321,0.132,0.1321,0.1335,0.1334,0.1336,0.136,0.1352,0.1355,0.1374,0.1364,0.1366,0.1387,0.1422,0.1379,0.1379,0.1438,0.144,0.1443,0.1482,0,0,0,0,0,0,0.1316,0.1318,0.1332,0.132,0.1321,0.1332,0.1333,0.1336,0.1361,0.1364,0.1374,0.1376,0.1366,0.1387,0.1387,0.1421,0.1379,0.1436,0.1439,0.1442,0.1479,0.1486,0.1492,0,0,0,0,0,0.1316,0.1324,0.1333,0.1335,0.1336,0.1333,0.1333,0.1345,0.1361,0.1371,0.1381,0.1377,0.1408,0.1387,0.1387,0.1422,0.1434,0.1438,0.1442,0.1476,0.1484,0.1491,0,0,0,0,0,0,0.1327,0.1326,0.1336,0.1346,0.1351,0.1339,0.1355,0.1361,0.1375,0.1391,0.1383,0.1386,0.1426,0.1416,0.1394,0.1453,0.1427,0.143,0.1453,0.1461,0.1467,0.1476,0.1379,0,0,0,0,0,0.1336,0.1343,0.1343,0.1354,0.1361,0.1365,0.1372,0.138,0.1385,0.1394,0.1403,0.1418,0.1434,0.1442,0.1454,0.1469,0.1478,0.1498,0.1505,0.151,0.152,0.1568,0.1579,0.1456,0.1456,0.1456,0,0,0.1344,0.1347,0.1352,0.1358,0.1366,0.1372,0.1372,0.1391,0.1404,0.1394,0.1427,0.1444,0.1447,0.1475,0.1492,0.1472,0.1549,0.1515,0.1519,0.1526,0.1573,0.1585,0.1595,0.1458,0.1458,0.1458,0,0,0.1349,0.1368,0.1373,0.1379,0.1398,0.1399,0.1412,0.1421,0.1439,0.1462,0.1471,0.1504,0.1521,0.1529,0.1533,0.1581,0.1588,0.1601,0.163,0.1677,0.1687,0.1696,0.1713,0.1723,0.1596,0.1596,0.1596,0,0.1363,0.1365,0.1375,0.1381,0.1392,0.1415,0.1423,0.1438,0.1456,0.1474,0.1485,0.1538,0.1544,0.1573,0.16,0.1595,0.162,0.1595,0.1685,0.1694,0.1703,0.1718,0.1729,0.1598,0.1598,0.1598,0.1597,0,0.1357,0.1375,0.1382,0.1396,0.1409,0.1424,0.1443,0.1475,0.1507,0.152,0.1577,0.1589,0.1619,0.1636,0.1633,0.1702,0.1699,0.1693,0.1661,0.1717,0.173,0.174,0.1602,0.1601,0.16,0.1599,0,0,0.1338,0.1371,0.1376,0.1383,0.1421,0.1417,0.1465,0.1495,0.1523,0.157,0.161,0.1654,0.168,0.1689,0.1699,0.1742,0.1822,0.1755,0.1756,0.1764,0.1922,0.1774,0.1771,0.1845,0.1847,0.1849,0.1901,0,0.1334,0.1339,0.1365,0.138,0.1383,0.143,0.1463,0.1501,0.1543,0.1593,0.1639,0.1686,0.1692,0.1724,0.1769,0.1821,0.1856,0.1808,0.1872,0.1874,0.173,0.178,0.1857,0.1909,0.1911,0.1913,0.1914,0,0.1312,0.1317,0.1331,0.1363,0.1372,0.139,0.1444,0.1483,0.1565,0.1608,0.1672,0.1713,0.1793,0.1792,0.1897,0.1876,0.1908,0.1937,0.1939,0.1795,0.1745,0.1845,0.1934,0.1932,0.1931,0.1929,0.1928,0,0.1261,0.129,0.1298,0.1308,0.1354,0.1378,0.1416,0.1488,0.1533,0.1632,0.1686,0.1764,0.1835,0.1895,0.1958,0.195,0.2065,0.2048,0.1933,0.1922,0.2022,0.2012,0.2117,0.2117,0.2117,0.2117,0.2117,0,0.1228,0.1237,0.1274,0.1274,0.1275,0.1341,0.1376,0.1428,0.1539,0.1597,0.1695,0.1755,0.1879,0.1951,0.1983,0.1985,0.2081,0.1947,0.1932,0.2035,0.2026,0.2028,0.2017,0.2119,0.2119,0.2118,0.2118,0,0.117,0.1209,0.1206,0.1245,0.125,0.1255,0.1338,0.1368,0.1502,0.1589,0.1638,0.1792,0.1889,0.1961,0.2066,0.2007,0.2024,0.1996,0.2095,0.2084,0.1842,0.1833,0.1871,0.1866,0.1862,0.1859,0.1856,0,0.1138,0.1133,0.1149,0.1135,0.1151,0.1178,0.1193,0.1321,0.1364,0.159,0.1616,0.178,0.1857,0.1881,0.1967,0.1984,0.1964,0.1939,0.1895,0.1838,0.1821,0.1818,0.1814,0.185,0.1849,0.1848,0.1847,0,0.1053,0.1074,0.1061,0.1032,0.1029,0.1032,0.1076,0.1112,0.129,0.1428,0.1562,0.1642,0.1744,0.1812,0.1835,0.1846,0.1935,0.1897,0.1905,0.1864,0.1813,0.1799,0.18,0.1833,0.1835,0.1836,0.1837,0,0.098,0.0938,0.0925,0.09,0.0891,0.088,0.0929,0.0998,0.1082,0.1347,0.1391,0.1579,0.1738,0.1741,0.1765,0.1758,0.1733,0.1658,0.1678,0.1694,0.161,0.1518,0.1441,0,0,0,0,0,0.0892,0.0831,0.0788,0.0744,0.075,0.0763,0.0835,0.0915,0.1098,0.1146,0.1278,0.1372,0.1473,0.1563,0.1521,0.1655,0.1709,0.1593,0.1625,0.1757,0.1773,0.1688,0,0,0,0,0,0,0.0817,0.0766,0.0738,0.0634,0.0606,0.0599,0.0659,0.0793,0.0831,0.1043,0.1103,0.1261,0.1365,0.1488,0.1493,0.1512,0.1493,0.1702,0.1697,0.1748,0.1762,0.1775,0.1693,0,0,0,0,0]},{"header":{"parameterUnit":"m.s-1","parameterCategory":2,"la1":30.2991,"la2":30.254,"lo1":-89.0895,"lo2":-89.0444,"dy":0.0017,"dx":0.0017,"nx":28,"ny":28,"refTime":"2024-08-16T03:00:00:Z","depth":"4","parameterNumber":3,"parameterNumberName":"V-component_of_CURRENTS"},"data":[0,0,0,0,0,0,0,0,0,0,0,0,0,0,0,0,0,0,0,0,0,0,0,0,0,0,0,0,0,0,0,0,0,0,0,0,0,0,0,0,0,0,0,0,0,0,0,0,0,0,0,0,0,0,0,0,0,0,0.0059,0.0059,0,0.006,0.006,0.006,0.0056,0.0056,0.0055,0.0055,0.0065,0.0066,0.0066,0,0,0,0,0,0,0,0,0,0,0,0,0,0.0061,0.0061,0.0059,0.0059,0.0059,0.006,0.006,0.006,0.0056,0.0056,0.0055,0.0055,0.0065,0.0066,0.0066,0,0,0,0,0,0,0,0,0,0,0,0,0,0.0062,0.0061,0.0059,0.0056,0.0056,0.006,0.006,0.006,0.0056,0.0056,0.0055,0.0055,0.0065,0.0066,0.0066,0.0078,0,0,0.0069,0.0069,0,0,0,0,0,0,0,0,0.0062,0.0062,0.0056,0.0056,0.0056,0.0056,0.0064,0.0066,0.0056,0.0057,0.0055,0.0055,0.0063,0.0064,0.0066,0.0078,0.0078,0.0069,0.0069,0.0069,0.007,0,0,0,0,0,0,0,0.0061,0.0062,0.006,0.0056,0.0056,0.0057,0.0057,0.0065,0.0063,0.0057,0.0056,0.0055,0.0063,0.0065,0.0066,0.0079,0.0069,0.0069,0.007,0.007,0.0092,0.0092,0,0,0,0,0,0,0.0059,0.0062,0.006,0.006,0.0057,0.0057,0.0057,0.0057,0.0062,0.0063,0.0055,0.0054,0.0064,0.0065,0.0067,0.0085,0.0069,0.007,0.007,0.0092,0.0092,0.0092,0,0,0,0,0,0,0.0059,0.0059,0.006,0.006,0.006,0.0057,0.0058,0.0058,0.0062,0.0061,0.0061,0.006,0.0064,0.0065,0.0078,0.0085,0.007,0.0071,0.0092,0.0092,0.0092,0.0119,0,0,0,0,0,0,0.0059,0.0059,0.006,0.006,0.006,0.0067,0.0058,0.0058,0.0061,0.006,0.0065,0.0065,0.0064,0.0077,0.0078,0.0086,0.0072,0.0091,0.0092,0.0092,0.0118,0.012,0.0122,0,0,0,0,0,0.0059,0.0062,0.0061,0.006,0.0061,0.0067,0.0068,0.0065,0.0061,0.0067,0.007,0.0065,0.0079,0.0078,0.008,0.0088,0.0091,0.0092,0.0092,0.0117,0.012,0.0122,0,0,0,0,0,0,0.006,0.0062,0.006,0.0062,0.0066,0.0066,0.007,0.0069,0.0076,0.0076,0.0074,0.0075,0.0084,0.0083,0.0081,0.0093,0.0082,0.0083,0.01,0.0103,0.0105,0.0106,0.0072,0,0,0,0,0,0.0061,0.0067,0.0067,0.007,0.0072,0.0072,0.0075,0.0075,0.0079,0.0081,0.0085,0.0086,0.0087,0.0093,0.0094,0.0108,0.0092,0.0111,0.0114,0.0115,0.0116,0.0103,0.0104,0.0093,0.0093,0.0093,0,0,0.0061,0.0064,0.0066,0.0071,0.0073,0.0085,0.0074,0.0081,0.0092,0.0082,0.0099,0.0094,0.0091,0.0103,0.0107,0.0104,0.0108,0.0116,0.0118,0.0117,0.0103,0.0104,0.0105,0.0094,0.0093,0.0093,0,0,0.0069,0.0068,0.0078,0.0085,0.0092,0.0095,0.0098,0.0103,0.0107,0.0122,0.0113,0.0112,0.0124,0.0119,0.0118,0.0133,0.0116,0.0134,0.0151,0.0138,0.0139,0.0139,0.0111,0.0109,0.0139,0.0139,0.0139,0,0.0069,0.0083,0.0081,0.0096,0.0106,0.0101,0.0119,0.0122,0.0131,0.0139,0.0131,0.0136,0.0129,0.0138,0.0139,0.0138,0.0124,0.0144,0.0141,0.0141,0.0141,0.0113,0.011,0.014,0.014,0.014,0.014,0,0.0087,0.0101,0.0108,0.0127,0.0137,0.0151,0.0157,0.0168,0.017,0.0172,0.018,0.0167,0.0172,0.0164,0.0157,0.0157,0.0144,0.0142,0.0136,0.0144,0.0113,0.011,0.0142,0.0141,0.0141,0.0141,0,0,0.0086,0.0116,0.012,0.0143,0.0158,0.0175,0.019,0.0208,0.0228,0.022,0.0239,0.0223,0.0212,0.0209,0.0195,0.0179,0.0159,0.0164,0.0163,0.0138,0.0121,0.0117,0.0113,0.0161,0.0161,0.0161,0.0096,0,0.0104,0.0142,0.015,0.0193,0.0217,0.0224,0.0247,0.0261,0.0265,0.0281,0.0256,0.0266,0.0231,0.0237,0.0213,0.0179,0.0153,0.0176,0.0115,0.0113,0.011,0.011,0.016,0.0094,0.0093,0.0092,0.0092,0,0.0122,0.015,0.0192,0.0245,0.0256,0.0281,0.0324,0.0345,0.0353,0.0356,0.0347,0.0328,0.0303,0.0273,0.0205,0.0224,0.0173,0.0135,0.0132,0.0118,0.0104,0.0085,0.0085,0.0086,0.0086,0.0087,0.0087,0,0.0136,0.0183,0.0223,0.0239,0.0289,0.0317,0.0348,0.037,0.0406,0.0406,0.0424,0.0381,0.0374,0.0303,0.0216,0.0217,0.0133,0.0127,0.0068,0.0066,0.0077,0.0077,0.0072,0.0072,0.0072,0.0072,0.0072,0,0.0155,0.019,0.0238,0.0264,0.0332,0.0352,0.0423,0.0439,0.0474,0.0519,0.047,0.0481,0.0384,0.0323,0.0232,0.0138,0.0143,0.0067,0.0053,0.0088,0.009,0.0073,0.0074,0.007,0.007,0.0071,0.0071,0,0.0165,0.019,0.0248,0.0311,0.0343,0.0394,0.0492,0.0542,0.0556,0.061,0.0614,0.0566,0.0485,0.037,0.0252,0.0173,0.0074,0.0035,0.007,0.0059,0.0008,0.0011,-0.003,-0.0031,-0.0031,-0.0032,-0.0032,0,0.0173,0.0201,0.0289,0.0341,0.0377,0.0463,0.0533,0.0585,0.0635,0.066,0.0683,0.0622,0.057,0.0395,0.0267,0.0088,0.0061,0.0001,0.0009,0.0009,-0.0001,0.0003,0.0007,-0.0033,-0.0033,-0.0033,-0.0033,0,0.0196,0.0224,0.0279,0.0383,0.0466,0.0563,0.0654,0.0699,0.0751,0.0761,0.0747,0.0655,0.056,0.0408,0.0266,0.0137,0.0038,-0.0005,-0.0004,0.0002,0.0006,-0.0003,0.0001,-0.0035,-0.0035,-0.0035,-0.0034,0,0.0219,0.0262,0.0339,0.0434,0.053,0.0626,0.0682,0.0745,0.0797,0.0808,0.08,0.0688,0.0624,0.0434,0.0303,0.0175,0.0144,0.0098,0.0092,0.0093,0.0145,0.0168,0.0165,0,0,0,0,0,0.0245,0.0303,0.039,0.0496,0.0584,0.0647,0.0746,0.0791,0.0832,0.0831,0.0819,0.0725,0.0541,0.0459,0.0332,0.0287,0.0116,0.0133,0.0058,-0.0045,-0.0043,-0.0003,0,0,0,0,0,0,0.0268,0.0347,0.0394,0.0521,0.0596,0.071,0.0774,0.0811,0.081,0.0818,0.0723,0.0681,0.0501,0.0608,0.0323,0.0286,0.0219,0.0048,0.0045,-0.0046,-0.0044,-0.0042,-0.0,0,0,0,0,0]}]]